Regional Weather Roundup
Issued by NWS New Orleans/Baton Rouge, LA

Home | Current Version | Previous Version | Text Only | Print | Product List | Glossary On
Versions: 1 2 3 4 5 6 7 8 9 10 11 12 13 14 15 16 17 18 19 20 21 22 23 24 25 26 27 28 29 30 31 32 33 34 35 36 37 38 39 40 41 42 43 44 45 46 47 48 49 50
131
ASUS44 KLIX 220405
RWRLIX
NEW ORLEANS REGIONAL WEATHER ROUNDUP
NATIONAL WEATHER SERVICE NEW ORLEANS LA
1000 PM CST SUN DEC 21 2014

NOTE: "FAIR" INDICATES FEW OR NO CLOUDS BELOW 12,000 FEET WITH NO
      SIGNIFICANT WEATHER AND/OR OBSTRUCTIONS TO VISIBILITY.
      SKY/WX - SKY CONDITION AND SIGNIFICANT WEATHER.
      TMP - AIR TEMPERATURE.     DP    - DEWPOINT TEMPERATURE.
      RH  - RELATIVE HUMIDITY.   PRES  - PRESSURE.
      HI  - HEAT INDEX.          WCI   - WIND CHILL INDEX.

*  THESE STATIONS ARE NOT NWS OR FAA STATIONS AND ARE NOT UNDER
   NWS QUALITY CONTROL.

LAZ038-040-048-061>063-065>067-069-220500-
SOUTHEAST LOUISIANA

CITY           SKY/WX    TMP DP  RH WIND       PRES   REMARKS
N.O. AUDUBON     N/A     56  56 100 MISG        N/A
N.O. INTL ARPT CLOUDY    56  52  86 E5        29.97F FOG
N.O. LAKEFRONT CLOUDY    58  54  86 E8        29.98F FOG
N.O. DOWNTOWN* CLOUDY    55  52  88 NE6       29.98S
SLIDELL        CLOUDY    55  52  89 CALM      29.98S
BATON ROUGE    MOCLDY    51  48  89 E7        29.96F
BOOTHVILLE     CLOUDY    57  57 100 E6        29.96F FOG
BELLE CHASSE   CLOUDY    57  55  93 E3        29.97F FOG
BOGALUSA*        N/A     55  51  85 CALM      30.01S
GALLIANO*      CLOUDY    57  56  96 MISG      29.96F FOG
NEW ROADS*     CLOUDY    51  50  97 CALM      29.95F
GONZALES*      CLOUDY    52  52 100 CALM      29.96F FOG
HAMMOND*       NOT AVBL
HOUMA*         CLOUDY    55  54  97 E7        29.95F FOG
PORT FOURCHON* CLOUDY    61  59  94 NE7       29.99S FOG

$$

MSZ070-080>082-220500-
SOUTHERN MISSISSIPPI

CITY           SKY/WX    TMP DP  RH WIND       PRES   REMARKS
MCCOMB           N/A     52  48  86 E6        29.97F
GULFPORT       CLOUDY    56  54  93 E6        29.98S FOG
BILOXI         CLOUDY    56  56 100 E5        29.98S
PASCAGOULA     CLOUDY    56  54  93 E5        29.99S

$$

COASTAL OBSERVATIONS
LAKE AND NEARSHORE STATIONS

STATION/POSITION TIME  TEMP    WIND        PRES    WAVE
                       AIR SEA DIR/SP/G            HT/PER
                 (UTC) (F)     (DEG/KT/KT) (MB)    (FT/S)
PASCAGOULA       0400   57      50/  8/ 11 1014.8
WAVELAND YACHT   0400   56     100/  8/ 11 1014.5
GRAND ISLE       0400   60 60   70/  9/ 11 1014.6
SOUTHWEST PASS   0400   62                 1014.4
NEW CANAL        0400   56 56   CALM  /  2 1015.3
SHELL BEACH      0400   57 57   70/  8/ 10 1014.9

OFFSHORE STATIONS

STATION/POSITION TIME  TEMP    WIND        PRES    WAVE
                       AIR SEA DIR/SP/G            HT/PER
                 (UTC) (F)     (DEG/KT/KT) (MB)    (FT/S)
64 S DAUPHIN ISL 0400   70 74  120/ 14/ 16 1014.5    3/ 5

$$




USA.gov is the U.S. government's official web portal to all federal, state and local government web resources and services.